Weather History for Whiteville, NC

Change the Weather History Date:

Friday, January 10, 2014

  Actual Average (KLBT) Record (KLBT)
Temperature  
Mean Temperature 58 °F 43 °F  
Max Temperature 72 °F 53 °F 72 °F (2008)
Min Temperature 45 °F 33 °F 23 °F (2004)
Degree Days  
Heating Degree Days 6 22  
Month to date heating degree days 219  
Since 1 July heating degree days 1269  
Cooling Degree Days 0 0  
Month to date cooling degree days 0  
Year to date cooling degree days 0  
Growing Degree Days 8 (Base 50)    
Moisture  
Dew Point 54 °F    
Average Humidity 80    
Maximum Humidity 96    
Minimum Humidity 62    
Precipitation  
Precipitation 0.01 in 0.07 in 1.34 in (2000)
Month to date precipitation 0.86  
Year to date precipitation 0.86  
Sea Level Pressure  
Sea Level Pressure 30.25 in    
Wind  
Wind Speed 6 mph (ESE)    
Max Wind Speed 14 mph    
Max Gust Speed 22 mph    
Visibility 10 miles    
Events Rain    
T = Trace of Precipitation, MM = Missing Value Source: NWS Daily Summary

Daily Weather History Graph

Daily Weather History Graph

Search for Another Location

Airport:

Trip Planner

Search our weather history database for the weather conditions in past years. The results will help you decide how hot, cold, wet, or windy it might be!

Date:

Astronomy

Jan. 10, 2014 Rise Set
Actual Time 7:21 AM EST 5:23 PM EST
Civil Twilight 6:54 AM EST 5:51 PM EST
Nautical Twilight 6:23 AM EST 6:22 PM EST
Astronomical Twilight 5:52 AM EST 6:52 PM EST
Moon 1:22 PM EST (1/10) 2:31 AM EST (1/10)
Length of Visible Light 10h 56m
Length of Day
10h 02m
Waxing Gibbous, 75% of the Moon is Illuminated
Jan 10
Waxing Gibbous
Jan 15
Full
Jan 24
Last Quarter
Jan 30
New
Feb 6
First Quarter

Hourly Weather History & Observations

Time (EST) Temp. Windchill Dew Point Humidity Pressure Visibility Wind Dir Wind Speed Gust Speed Precip Events Conditions
12:15 AM 47.3 °F - 38.3 °F 71% 30.42 in 10.0 mi NE 4.6 mph - N/A   Overcast
12:35 AM 46.9 °F - 38.3 °F 72% 30.41 in 10.0 mi ENE 4.6 mph - N/A   Overcast
12:55 AM 46.6 °F - 38.5 °F 73% 30.39 in 10.0 mi NE 4.6 mph - N/A   Overcast
1:15 AM 46.4 °F 44.3 °F 38.3 °F 73% 30.39 in 10.0 mi NNE 4.6 mph - N/A   Scattered Clouds
1:35 AM 46.0 °F 43.9 °F 38.8 °F 76% 30.38 in 10.0 mi ENE 4.6 mph - N/A   Mostly Cloudy
1:55 AM 46.4 °F 43.5 °F 39.0 °F 75% 30.37 in 10.0 mi NE 5.8 mph - N/A   Mostly Cloudy
2:15 AM 46.0 °F 43.9 °F 38.8 °F 76% 30.37 in 10.0 mi NE 4.6 mph - N/A   Scattered Clouds
2:35 AM 45.9 °F 43.6 °F 39.4 °F 78% 30.36 in 10.0 mi ENE 4.6 mph - N/A   Mostly Cloudy
2:55 AM 45.7 °F 43.4 °F 40.1 °F 81% 30.36 in 10.0 mi ENE 4.6 mph - N/A   Mostly Cloudy
3:15 AM 45.7 °F 42.7 °F 40.1 °F 81% 30.35 in 10.0 mi NE 5.8 mph - N/A   Mostly Cloudy
3:35 AM 46.9 °F - 41.0 °F 80% 30.36 in 10.0 mi ENE 3.5 mph - N/A   Overcast
3:55 AM 46.6 °F - 41.0 °F 81% 30.34 in 10.0 mi ENE 5.8 mph - N/A   Overcast
4:15 AM 47.3 °F - 41.5 °F 80% 30.34 in 10.0 mi NE 4.6 mph - N/A   Overcast
4:35 AM 47.3 °F - 42.1 °F 82% 30.34 in 10.0 mi NE 4.6 mph - N/A   Overcast
4:55 AM 47.8 °F - 42.6 °F 82% 30.33 in 10.0 mi ENE 4.6 mph - N/A   Overcast
5:15 AM 47.8 °F - 42.8 °F 83% 30.33 in 10.0 mi ENE 3.5 mph - N/A   Overcast
5:35 AM 47.8 °F - 43.2 °F 84% 30.33 in 10.0 mi East 3.5 mph - N/A   Overcast
5:55 AM 48.0 °F - 43.5 °F 84% 30.32 in 10.0 mi ENE 3.5 mph - N/A   Overcast
6:15 AM 47.5 °F - 43.7 °F 87% 30.32 in 10.0 mi ENE 3.5 mph - N/A   Scattered Clouds
6:35 AM 47.8 °F - 44.2 °F 87% 30.32 in 10.0 mi ENE 3.5 mph - N/A   Mostly Cloudy
6:55 AM 48.2 °F - 44.8 °F 88% 30.32 in 10.0 mi ENE 3.5 mph - N/A   Overcast
7:15 AM 49.3 °F - 45.7 °F 87% 30.32 in 10.0 mi ENE 4.6 mph - N/A   Overcast
7:35 AM 50.5 °F - 46.8 °F 87% 30.32 in 10.0 mi Calm Calm - N/A   Overcast
7:55 AM 52.3 °F - 47.7 °F 84% 30.33 in 10.0 mi ENE 3.5 mph - N/A   Overcast
8:15 AM 52.7 °F - 48.6 °F 86% 30.33 in 10.0 mi East 3.5 mph - N/A Rain Light Rain
8:35 AM 55.9 °F - 50.7 °F 83% 30.33 in 10.0 mi East 5.8 mph - N/A   Overcast
8:55 AM 57.7 °F - 51.4 °F 79% 30.33 in 10.0 mi ESE 6.9 mph - N/A   Overcast
9:15 AM 58.8 °F - 51.8 °F 77% 30.33 in 10.0 mi ESE 6.9 mph - N/A Rain Light Rain
9:35 AM 59.9 °F - 52.2 °F 76% 30.33 in 10.0 mi East 6.9 mph - N/A   Overcast
9:55 AM 61.7 °F - 52.3 °F 71% 30.32 in 10.0 mi East 9.2 mph - N/A   Mostly Cloudy
10:15 AM 61.9 °F - 52.7 °F 72% 30.32 in 10.0 mi East 6.9 mph - N/A   Overcast
10:35 AM 62.8 °F - 53.6 °F 72% 30.31 in 10.0 mi Calm Calm - N/A   Overcast
10:55 AM 64.2 °F - 54.5 °F 71% 30.30 in 10.0 mi ESE 3.5 mph - N/A   Overcast
11:15 AM 64.8 °F - 55.0 °F 71% 30.29 in 10.0 mi ESE 4.6 mph - N/A   Overcast
11:35 AM 66.0 °F - 55.8 °F 69% 30.28 in 10.0 mi SE 5.8 mph - N/A   Overcast
11:55 AM 67.6 °F - 56.3 °F 67% 30.27 in 10.0 mi SE 9.2 mph - N/A   Overcast
12:15 PM 68.9 °F - 57.2 °F 66% 30.26 in 10.0 mi SE 11.5 mph 16.1 mph N/A   Overcast
12:35 PM 69.8 °F - 57.7 °F 65% 30.24 in 10.0 mi SE 10.4 mph 17.3 mph N/A   Mostly Cloudy
12:55 PM 71.8 °F - 58.1 °F 62% 30.22 in 10.0 mi SSE 13.8 mph 17.3 mph N/A   Mostly Cloudy
1:15 PM 70.9 °F - 57.7 °F 63% 30.21 in 10.0 mi SE 12.7 mph 19.6 mph N/A   Overcast
1:35 PM 70.9 °F - 58.5 °F 65% 30.20 in 10.0 mi SSE 8.1 mph 18.4 mph N/A   Overcast
1:55 PM 72.5 °F - 58.8 °F 62% 30.19 in 10.0 mi SE 12.7 mph 19.6 mph N/A   Mostly Cloudy
2:15 PM 71.2 °F - 59.0 °F 65% 30.19 in 10.0 mi SSE 13.8 mph 20.7 mph N/A   Mostly Cloudy
2:35 PM 71.1 °F - 59.2 °F 66% 30.19 in 10.0 mi SE 12.7 mph 19.6 mph N/A   Overcast
2:55 PM 70.7 °F - 59.4 °F 67% 30.19 in 10.0 mi SE 4.6 mph 9.2 mph N/A   Overcast
3:15 PM 70.5 °F - 59.9 °F 69% 30.19 in 10.0 mi SE 8.1 mph 16.1 mph N/A   Overcast
3:35 PM 69.8 °F - 60.1 °F 71% 30.18 in 10.0 mi SE 9.2 mph 21.9 mph N/A   Overcast
3:55 PM 69.8 °F - 60.4 °F 72% 30.18 in 10.0 mi SSE 11.5 mph 17.3 mph N/A   Overcast
4:15 PM 69.3 °F - 60.3 °F 73% 30.18 in 10.0 mi SE 8.1 mph - N/A   Overcast
4:35 PM 69.4 °F - 60.8 °F 74% 30.18 in 10.0 mi ESE 11.5 mph 17.3 mph N/A   Overcast
4:55 PM 69.3 °F - 60.8 °F 74% 30.17 in 10.0 mi ESE 6.9 mph 16.1 mph N/A   Overcast
5:15 PM 68.7 °F - 61.0 °F 76% 30.16 in 10.0 mi SE 5.8 mph 9.2 mph N/A   Overcast
5:35 PM 68.0 °F - 61.3 °F 79% 30.16 in 7.0 mi SE 6.9 mph - N/A Rain Rain
5:55 PM 67.6 °F - 61.7 °F 81% 30.16 in 10.0 mi SE 5.8 mph - N/A   Overcast
6:15 PM 67.3 °F - 61.9 °F 83% 30.15 in 10.0 mi ESE 5.8 mph - N/A   Overcast
6:35 PM 66.7 °F - 62.2 °F 85% 30.15 in 10.0 mi ESE 6.9 mph - N/A   Mostly Cloudy
6:55 PM 66.2 °F - 62.6 °F 88% 30.15 in 7.0 mi ESE 5.8 mph - N/A Rain Rain
7:15 PM 65.8 °F - 62.8 °F 90% 30.14 in 7.0 mi SE 4.6 mph - N/A   Overcast
7:35 PM 65.3 °F - 63.0 °F 92% 30.14 in 5.0 mi SE 3.5 mph - N/A Rain Rain
7:55 PM 65.3 °F - 63.5 °F 94% 30.14 in 5.0 mi ESE 3.5 mph - N/A Rain Rain
8:15 PM 65.1 °F - 63.7 °F 95% 30.14 in 4.0 mi SE 4.6 mph - N/A Rain Light Rain
8:35 PM 65.5 °F - 64.2 °F 96% 30.14 in 7.0 mi SSE 4.6 mph - 0.01 in   Drizzle
8:55 PM 66.4 °F - 64.8 °F 95% 30.13 in 10.0 mi SSE 8.1 mph - 0.01 in   Overcast
9:15 PM 66.4 °F - 64.8 °F 95% 30.13 in 7.0 mi SSE 5.8 mph - N/A   Overcast
9:35 PM 66.7 °F - 65.3 °F 95% 30.13 in 10.0 mi SSE 6.9 mph - N/A Rain Light Rain
9:55 PM 67.1 °F - 65.5 °F 95% 30.12 in 10.0 mi South 8.1 mph - N/A   Overcast
10:15 PM 66.9 °F - 65.3 °F 95% 30.12 in 7.0 mi South 6.9 mph - N/A   Overcast
10:35 PM 66.7 °F - 65.3 °F 95% 30.12 in 7.0 mi South 9.2 mph - N/A   Overcast
10:55 PM 66.4 °F - 65.1 °F 96% 30.12 in 10.0 mi South 10.4 mph - N/A   Overcast
11:15 PM 66.6 °F - 65.3 °F 96% 30.11 in 10.0 mi South 5.8 mph - N/A   Overcast
11:35 PM 66.4 °F - 65.1 °F 96% 30.11 in 10.0 mi South 6.9 mph - N/A   Overcast
11:55 PM 66.2 °F - 64.8 °F 95% 30.10 in 10.0 mi South 6.9 mph - N/A   Overcast